Tracking 25195 objects as of 19-Jan-2022
HD Live streaming from Space Station
objects crossing your sky now

ISO

Track ISO now!
ISO is classified as:


NORAD ID: 23715
Int'l Code: 1995-062A
Perigee: 511.6 km
Apogee: 70,113.0 km
Inclination: 3.5 °
Period: 1,411.6 minutes
Semi major axis: 41683 km
RCS: 3.9811 m2 (large)
Launch date: November 17, 1995
Source: European Space Agency (ESA)
Launch site: FRENCH GUIANA (FRGUI)
aabbcc
Your satellite tracking list
Your tracking list is empty




NASA's NSSDC Master Catalog

Two Line Element Set (TLE):
1 23715U 95062A   22018.32883717 -.00000107  00000-0 -10766-2 0  9994
2 23715   3.4906  43.2059 8348830  17.1186 359.6091  1.02013896 97248
Source of the keplerian elements: AFSPC